DELTA 1 DEB, 7132

Orbit data source: Space-Track

DELTA 1 DEB, 7132 is space debris in SSO originally from a launch on Tue, 06 Nov 1973 UTC launched from the Air Force Western Test Range (AFWTR). Debris objects in space refer to the collection of defunct objects orbiting the Earth. Examples of debris include non-operational satellites, rocket bodies, and fragments generated from explosions, collisions, or faulty payload assembly.

Loading next visibility...
Identifier
7132, 1973-086CW
Orbit
SSO
Country
Flag of USUS
Related business
Manufacturer
Unknown
Mission
Spacecraft
Bus & Motor
Unknown
Mass
Unknown
Launch date (UTC)
1973-11-06 (53 years ago)
Launch vehicle
Unknown
Launch site
Air Force Western Test Range (AFWTR)
Object type
Payload
Rocket body
Debris
Shape & HBR
Unknown shape, 0.3 m
Radar Cross Section
Medium (>0.1 m² and <1 m²)

Expand to show TLE details & history
Last TLE update: 12 hours ago

TLE from 12 hours ago
0 DELTA 1 DEB
1  7132U 73086CW  26209.23222624  .00000058  00000-0  76839-3 0  9998
2  7132 102.2217 191.5461 0020581 284.9498  87.2695 12.41399667384782
Epoch: 2026-07-28T05:34Z
TLE epoch observation values (Epoch: 2026-07-28T05:34:24.347Z)
Latitude
12.13233°
Longitude
159.38444°
Altitude
1,501.73 km
Speed
7.115 km/s
True Right ascension
12h 35m 33s
True Declination
12° 04' 07"
Sunlit
Object was in daylight at epoch
Visualization orbit readout
Latitude
Unknown
Longitude
Unknown
Altitude
Unknown
Speed
Unknown
Apparent Right ascension
Unknown
Apparent Declination
Unknown
Sunlit
N/A
Visualization observer readout
Local Sidereal Time
06:30:20
Azimuth
Unknown
Elevation
Unknown
Doppler factor
Unknown
Orbital elements
Apogee altitude
1,514.472 km
Perigee altitude
1,482.051 km
Semi-major axis
7,876.399 km
Eccentricity
0.00206
Inclination
102.2217°
RAAN
191.5461°
Arg. of periapsis
284.9498°
True anomaly
87.5051°
Mean anomaly
87.2695°
Eccentric anomaly
87.3873°
Mean motion
3.10493 °/min
Orbital period
115.94 mins
BSTAR
0.00076839
Loading maneuver chart data...
Computing Atmospheric mass density...
Loading historical data...
Loading historical data...
Loading historical data...
Loading historical data...
Loading historical data...
Loading historical data...
Loading historical data...

Documentation

Showing up to 5 results
|